Vorticity
21 20 20 16 20 25 20 11 3 16 10 11 8 5 6 8 8 8 9 11 10 10 10 9 9 9 8 6 6 7 8 10 12 14 15 14 13 12 12 10 6 6 7 8
0 29 32 4 9 10 13 15 19 18 5 12 13 9 7 4 3 3 4 7 8 12 12 9 8 7 6 5 5 4 4 4 3 4 7 10 13 15 14 12 10 9 10 10
22 9 -3 -30 9 18 9 17 3 2 11 3 6 7 9 12 8 5 6 4 8 7 6 6 8 10 12 13 13 12 11 11 11 11 10 9 9 10 13 14 15 15 14 13
49 -13 11 7 5 4 9 5 8 9 4 1 -1 -1 4 1 6 5 5 5 5 6 7 7 6 6 7 7 7 6 6 6 7 9 10 12 13 13 12 11 12 13 14 14
8 9 15 3 2 9 9 8 9 5 2 3 0 -1 5 8 7 8 8 9 9 9 10 9 10 11 9 9 9 9 8 7 6 4 4 5 5 5 6 8 9 9 8 8
-2 9 14 15 2 10 7 15 17 5 -7 0 12 11 10 10 11 9 10 12 13 13 12 14 13 12 12 13 13 13 13 11 10 10 10 9 7 6 6 5 5 5 5 5
24 14 14 -5 6 16 14 3 -3 5 8 9 9 10 9 11 11 11 11 11 10 10 10 10 11 11 12 13 13 13 13 13 14 15 15 16 15 14 12 10 10 10 9 9
6 11 0 2 12 18 -1 9 7 7 7 8 9 9 9 10 11 12 12 12 11 11 10 11 12 11 12 13 12 11 11 11 12 12 13 13 13 15 16 18 18 17 16 14
21 7 9 19 8 9 11 10 8 11 10 8 8 9 9 9 10 11 12 14 14 13 13 14 14 13 13 13 14 14 14 14 14 14 14 14 13 12 12 12 12 13 14 16
19 4 12 7 7 10 9 9 9 9 9 8 7 9 9 9 10 10 11 11 12 14 17 15 14 13 13 13 13 13 13 14 16 16 16 16 15 14 14 14 14 13 13 14
8 6 15 3 7 11 9 7 7 9 8 8 7 10 9 11 12 12 12 12 11 11 12 15 16 14 12 12 11 11 11 12 11 11 12 13 14 15 15 15 14 14 14 15
1 9 9 7 6 7 8 8 8 8 10 10 9 9 11 13 12 12 13 12 12 11 11 12 12 14 15 13 11 10 10 9 10 10 10 11 13 14 15 16 15 13 15 16
11 11 6 8 7 7 8 8 10 9 7 9 12 10 12 13 15 14 14 13 12 12 12 12 11 11 14 15 14 14 14 12 12 12 12 12 13 14 15 13 14 13 11 4
8 10 10 7 8 6 7 7 9 8 8 9 8 11 10 13 16 15 15 13 13 13 13 12 11 11 12 13 15 17 15 15 15 15 16 15 15 15 14 17 17 17 16 13
7 9 9 10 9 8 8 7 9 8 8 11 12 11 13 14 17 17 16 13 12 13 12 10 11 17 17 18 15 14 14 16 18 17 12 12 11 12 14 13 13 16 17 16
10 8 8 9 9 9 9 8 9 9 9 10 12 13 13 14 17 16 15 13 13 15 14 17 18 20 24 20 18 20 20 15 16 20 20 20 18 17 14 9 12 10 10 14
11 11 10 11 8 10 9 9 8 8 9 11 10 11 12 13 19 17 15 16 17 17 18 15 20 22 19 19 23 21 17 12 8 6 4 6 8 6 8 11 22 11 6 16
9 10 9 9 8 9 10 9 9 9 8 10 11 11 12 11 16 16 14 19 19 22 17 18 19 20 19 22 14 1 1 4 7 11 10 10 12 19 29 7 10 13 14 10
8 9 10 10 9 9 9 9 10 9 8 10 10 11 12 10 14 17 14 20 16 21 15 19 21 24 21 12 4 0 5 6 11 11 9 12 19 13 20 26 8 13 12 7
10 9 8 10 11 11 10 10 10 10 8 9 10 10 12 9 12 16 16 20 15 16 18 18 18 19 9 4 1 3 6 11 9 9 14 16 18 21 22 25 18 11 11 4
11 10 9 9 9 10 10 11 10 10 10 8 9 10 11 11 11 14 14 25 12 18 16 9 14 12 4 2 9 8 5 5 11 10 12 25 22 18 18 24 29 18 7 2
10 11 11 10 10 10 8 8 10 10 10 9 9 9 10 12 11 17 11 17 21 16 11 11 4 5 6 3 4 4 4 3 9 7 12 22 21 19 12 20 24 27 24 10
7 12 12 11 11 11 12 8 9 8 9 10 9 9 10 11 11 10 20 9 20 18 12 10 8 -1 2 1 1 -1 2 1 1 8 6 22 25 20 16 11 19 23 19 19
12 8 8 12 10 10 11 11 11 10 8 9 9 8 8 9 15 4 12 14 16 23 17 11 8 6 1 2 4 2 1 1 0 5 5 17 26 21 28 15 16 22 19 16
11 16 14 9 12 10 10 9 10 11 12 12 12 11 9 8 10 11 10 13 14 14 23 25 8 7 7 7 6 4 0 -1 -2 3 4 12 21 19 23 16 14 18 20 17
10 12 11 8 7 10 10 10 9 10 9 9 13 11 12 12 12 10 11 10 13 15 14 16 26 22 14 8 6 4 3 4 7 11 5 14 24 23 21 20 19 18 17 19
17 12 13 15 13 7 6 9 9 11 9 8 8 10 10 10 11 12 14 14 11 12 14 14 14 16 20 23 23 21 20 19 17 11 5 15 19 18 20 21 19 19 18 18
Height
2927 2929 2930 2931 2932 2934 2937 2938 2940 2942 2944 2945 2946 2946 2945 2945 2944 2944 2944 2944 2943 2943 2942 2942 2943 2943 2943 2944 2945 2945 2946 2947 2948 2949 2950 2952 2954 2956 2959 2962 2964 2967 2969 2971
2919 2921 2925 2925 2929 2932 2935 2936 2939 2942 2944 2945 2945 2945 2945 2944 2944 2943 2942 2942 2942 2941 2941 2940 2940 2939 2939 2939 2939 2940 2941 2942 2942 2943 2944 2945 2946 2948 2951 2954 2956 2959 2962 2964
2919 2925 2927 2930 2936 2938 2937 2939 2941 2943 2945 2945 2945 2944 2944 2943 2942 2940 2939 2938 2937 2937 2936 2936 2935 2933 2933 2933 2933 2932 2932 2932 2933 2933 2934 2936 2937 2939 2941 2942 2945 2947 2950 2952
2918 2925 2928 2940 2940 2942 2942 2940 2942 2942 2943 2944 2944 2943 2941 2940 2938 2936 2935 2933 2931 2930 2930 2929 2928 2927 2926 2925 2925 2924 2924 2924 2923 2923 2923 2925 2926 2927 2929 2930 2932 2934 2937 2939
2919 2928 2940 2941 2941 2943 2941 2942 2941 2942 2942 2942 2941 2940 2938 2936 2933 2930 2928 2926 2923 2922 2921 2919 2918 2916 2916 2916 2915 2915 2914 2914 2914 2914 2914 2914 2915 2915 2916 2917 2919 2922 2923 2925
2921 2928 2937 2943 2943 2942 2940 2939 2940 2941 2940 2939 2937 2934 2934 2930 2928 2925 2922 2918 2915 2913 2911 2909 2907 2905 2903 2903 2902 2902 2902 2903 2903 2902 2902 2902 2902 2903 2904 2905 2906 2907 2909 2911
2925 2931 2941 2942 2942 2941 2941 2947 2939 2938 2936 2934 2932 2929 2926 2923 2920 2916 2913 2910 2905 2903 2901 2899 2896 2893 2892 2891 2891 2890 2889 2888 2889 2889 2888 2889 2890 2890 2890 2891 2891 2892 2893 2895
2932 2935 2943 2941 2941 2942 2942 2938 2936 2934 2931 2929 2926 2923 2919 2916 2913 2909 2905 2901 2897 2894 2892 2889 2886 2883 2882 2881 2879 2878 2877 2876 2876 2876 2876 2875 2874 2875 2876 2876 2876 2877 2877 2879
2939 2942 2941 2940 2939 2938 2937 2935 2933 2930 2928 2923 2920 2916 2913 2909 2905 2901 2897 2893 2889 2885 2882 2880 2876 2872 2871 2870 2867 2866 2865 2864 2863 2863 2862 2862 2862 2862 2862 2862 2861 2862 2862 2863
2942 2942 2940 2939 2938 2936 2934 2932 2929 2925 2922 2918 2913 2910 2906 2902 2897 2892 2889 2884 2880 2877 2874 2871 2868 2864 2861 2859 2857 2855 2854 2853 2852 2851 2850 2850 2849 2848 2848 2849 2849 2848 2848 2849
2944 2942 2940 2938 2936 2934 2932 2928 2924 2921 2917 2913 2907 2904 2898 2894 2890 2885 2880 2876 2871 2867 2864 2862 2859 2856 2853 2850 2847 2845 2844 2844 2842 2841 2839 2839 2838 2837 2836 2837 2836 2836 2836 2836
2944 2942 2940 2938 2934 2931 2928 2925 2922 2917 2914 2909 2902 2896 2891 2887 2881 2875 2871 2867 2863 2859 2855 2852 2849 2846 2844 2840 2837 2835 2834 2833 2832 2830 2830 2828 2827 2827 2826 2825 2825 2825 2825 2826
2945 2942 2940 2937 2933 2929 2926 2922 2919 2914 2908 2903 2899 2891 2885 2879 2873 2867 2862 2857 2853 2849 2846 2843 2839 2836 2834 2831 2828 2826 2824 2823 2822 2821 2820 2818 2817 2815 2815 2816 2814 2813 2814 2815
2945 2942 2939 2935 2932 2927 2923 2919 2914 2909 2903 2897 2890 2885 2877 2870 2865 2859 2853 2849 2845 2841 2838 2834 2831 2828 2824 2820 2818 2816 2815 2814 2813 2812 2811 2809 2808 2807 2805 2804 2804 2807 2806 2804
2943 2940 2936 2932 2928 2924 2919 2914 2910 2905 2899 2894 2887 2879 2872 2865 2859 2853 2847 2841 2836 2832 2829 2824 2820 2818 2814 2811 2809 2808 2807 2806 2805 2804 2802 2801 2799 2798 2797 2796 2795 2795 2796 2796
2942 2938 2934 2929 2925 2921 2915 2911 2905 2900 2894 2888 2881 2874 2866 2858 2852 2846 2840 2834 2828 2824 2820 2815 2811 2808 2805 2803 2802 2801 2801 2799 2797 2796 2795 2793 2792 2790 2789 2788 2787 2787 2787 2788
2939 2936 2931 2926 2921 2917 2911 2905 2899 2893 2887 2881 2875 2867 2860 2853 2846 2840 2834 2828 2822 2817 2812 2807 2804 2802 2799 2797 2797 2796 2796 2796 2794 2793 2791 2788 2786 2783 2782 2780 2779 2779 2780 2780
2935 2930 2925 2920 2915 2911 2907 2901 2896 2890 2883 2877 2871 2864 2856 2848 2840 2834 2827 2822 2816 2812 2807 2803 2799 2797 2795 2794 2794 2794 2794 2792 2790 2788 2785 2781 2778 2775 2772 2771 2770 2771 2772 2773
2932 2927 2922 2917 2912 2907 2902 2897 2892 2886 2879 2873 2866 2859 2852 2844 2836 2829 2823 2816 2810 2807 2803 2799 2796 2794 2792 2792 2792 2791 2789 2787 2784 2781 2777 2773 2769 2766 2763 2761 2762 2763 2764 2765
2929 2924 2919 2914 2909 2903 2897 2892 2887 2881 2874 2868 2862 2855 2848 2840 2832 2826 2819 2813 2808 2804 2800 2797 2795 2793 2792 2791 2789 2788 2785 2783 2779 2774 2770 2765 2761 2757 2755 2753 2753 2754 2756 2758
2924 2919 2914 2909 2904 2899 2892 2887 2882 2876 2870 2863 2857 2850 2844 2837 2829 2822 2815 2810 2805 2801 2799 2796 2794 2792 2791 2789 2786 2784 2781 2778 2774 2770 2765 2759 2754 2750 2747 2745 2744 2745 2747 2749
2919 2914 2910 2904 2899 2894 2888 2882 2876 2871 2865 2859 2852 2845 2839 2833 2825 2819 2812 2806 2803 2799 2796 2794 2792 2790 2787 2784 2783 2780 2777 2774 2770 2764 2759 2753 2748 2744 2741 2739 2737 2737 2739 2741
2915 2909 2904 2899 2894 2889 2884 2877 2872 2865 2860 2853 2847 2841 2835 2828 2821 2814 2810 2804 2798 2795 2792 2790 2788 2786 2784 2781 2778 2776 2773 2769 2765 2760 2755 2749 2743 2739 2736 2734 2732 2732 2733 2734
2910 2905 2899 2894 2888 2883 2878 2873 2866 2860 2854 2848 2842 2835 2829 2823 2819 2810 2805 2799 2795 2790 2787 2785 2783 2781 2778 2776 2774 2771 2768 2765 2761 2756 2751 2744 2738 2734 2730 2729 2728 2727 2728 2729
2904 2899 2893 2888 2883 2877 2872 2866 2861 2854 2849 2843 2836 2830 2823 2817 2811 2807 2800 2795 2789 2785 2781 2778 2775 2773 2771 2769 2767 2765 2762 2759 2755 2751 2745 2739 2734 2730 2727 2725 2724 2723 2723 2725
2899 2894 2889 2883 2876 2871 2865 2859 2854 2848 2841 2836 2832 2824 2818 2812 2806 2800 2795 2789 2785 2780 2775 2771 2767 2764 2762 2761 2759 2757 2754 2752 2749 2746 2741 2736 2731 2727 2723 2721 2720 2720 2721 2721
2895 2888 2883 2878 2872 2866 2859 2852 2845 2840 2834 2828 2823 2818 2811 2806 2800 2794 2789 2784 2779 2774 2769 2765 2761 2757 2753 2751 2749 2747 2746 2744 2742 2740 2737 2732 2727 2724 2721 2719 2718 2718 2719 2720